Location: Poprad
(0.0000°N, 20.3000°E)
Time: 15:35:50
(UTC+02:00)

Daily predictions for brighter satellites

Satellite Brightness Start Highest point End
(mag) Time Altitude Azimuth Time Altitude Azimuth Time Altitude Azimuth
CZ-3C R/B 1.5 18:45:59 10° NW 18:48:38 53° NNE 18:57:45 10° ESE
SWIFT 2.8 18:55:07 10° SW 18:59:14 46° SSE 19:03:21 10° E
ARIANE 5 DEB (SYLDA) 4.0 18:57:00 10° WNW 19:00:36 53° NNE 19:08:02 10° E
YAOGAN 1 2.6 18:56:57 10° SSE 19:01:13 60° ENE 19:05:28 10° N
COSMOS 2428 2.9 18:56:27 10° SSW 19:02:11 85° WNW 19:07:54 10° NNE
IUS-9 SRM-1 3.2 19:01:40 10° WNW 19:02:56 18° NNW 19:04:25 10° NNE
Meteor 2-19 Rocket 4.5 18:58:37 10° S 19:04:48 85° E 19:10:56 10° N
ISS -2.2 19:01:53 10° WNW 19:04:54 35° SW 19:07:56 10° SSE
Cosmos 1766 Rocket 4.1 19:04:30 10° NNW 19:08:47 64° W 19:13:09 10° S
MOS 1-B Rocket 4.5 19:03:06 10° S 19:08:59 72° WSW 19:15:45 10° NNW
Aureole 1 Rocket 3.0 19:07:45 10° N 19:11:03 46° E 19:15:13 10° SSE
ALOS 2.3 19:06:37 10° SSE 19:11:17 86° ENE 19:15:55 10° N
Cosmos 1300 2.7 19:08:34 10° S 19:12:24 89° E 19:16:12 10° N
Cosmos 2219 Rocket 2.2 19:07:21 10° S 19:13:01 78° ESE 19:18:40 10° NNE
Cosmos 2237 Rocket 2.9 19:09:43 10° SSE 19:14:35 30° ESE 19:19:24 10° NE
Landsat 4 4.4 19:13:16 10° N 19:16:56 58° WNW 19:20:35 10° SSW
Skynet4D Del rocket 4.1 19:12:14 10° NW 19:17:24 45° NNE 19:21:45 14° E
Cosmos 1500 Rocket 3.9 19:19:39 10° NNE 19:23:52 43° E 19:28:02 10° SSE
Ariane H10+ 1.7 19:24:25 10° WNW 19:26:41 39° NNE 19:29:58 15° E
Cosmos 2263 Rocket 2.6 19:22:16 10° N 19:27:34 42° ENE 19:32:49 10° SE
IRAS Rocket 4.3 19:22:40 10° SSE 19:28:06 56° ENE 19:33:28 10° N
Cosmos 1818 4.1 19:27:11 10° NNW 19:32:31 60° WSW 19:37:49 10° S
Cosmos 1455 3.5 19:37:00 21° ENE 19:37:00 21° ENE 19:39:10 10° NE
Cosmos 2058 3.8 19:34:42 10° NNW 19:38:47 53° W 19:42:53 10° S
OAO 3 Rocket 3.4 19:41:00 10° WSW 19:45:47 67° NW 19:49:50 14° NE
Cosmos 2154 Rocket 3.9 19:40:32 10° S 19:46:50 71° E 19:53:03 10° N
FREGAT/IRIS 3.8 19:48:18 28° NE 19:48:18 28° NE 19:50:02 10° N
Gblst 52 Del rocket 4.4 19:41:41 10° SSW 19:48:05 58° SE 19:53:01 14° NE
SPOT 3 Rocket 3.4 19:44:31 10° SSE 19:49:44 78° ENE 19:54:54 10° N
Ariane H10-3 1.2 19:47:55 10° W 19:50:30 48° SSW 19:50:30 48° SSW
GPS 2-12 Rocket1 3.2 19:45:57 10° WNW 19:50:38 64° SSW 19:52:29 34° SE
Cosmos 1048 Rocket 3.9 19:46:06 10° N 19:51:25 84° ENE 19:56:47 10° SSE
Ariane H10+ 4.0 19:47:04 10° WNW 19:51:44 65° N 19:59:46 23° E
Cosmos 1269 Rocket 4.1 19:46:53 10° N 19:52:02 56° ENE 19:55:07 24° SSE
Cosmos 2344 4.1 19:47:32 10° S 19:56:11 39° ESE 20:03:00 11° NE
ARIANE 3 DEB 3.9 19:52:08 10° WSW 19:58:24 36° S 19:59:20 31° SSE
SL-16 R/B 4.1 19:59:29 10° SSE 20:00:14 13° SSE 20:00:14 13° SSE
GPS 2-15 Rocket1 4.5 20:00:30 10° W 20:05:02 36° NNW 20:07:33 22° NNE
Hubble Space Telescope 2.3 20:02:57 10° W 20:06:41 33° NNW 20:08:39 21° NNE
In-Cosmos 22 Rocket 4.3 20:01:57 10° NNE 20:06:44 45° ENE 20:06:44 45° ENE
Cosmos 2341 Rocket 3.9 20:03:17 10° S 20:09:40 73° E 20:16:00 10° N
NOSS 3-1 (C) 4.3 20:01:30 10° NNW 20:10:04 77° WSW 20:18:02 13° SSE
Thor Agena Rocket 4.4 20:05:46 10° N 20:10:53 53° WNW 20:16:02 10° SSW
NOSS 3-1 (A) 4.1 20:02:22 10° NNW 20:10:56 76° ENE 20:16:20 26° SSE
H-2A R/B 4.4 20:08:03 10° SSW 20:11:20 31° W 20:14:37 10° NW
ARIANE 5 DEB (SYLDA) 3.3 20:02:29 10° W 20:11:42 75° S 20:12:32 60° ESE
Cosmos 962 Rocket 4.3 20:06:29 10° S 20:12:36 81° E 20:18:42 10° N
Cosmos 1328 Rocket 3.5 20:16:02 48° S 20:17:12 85° W 20:21:35 10° N
Tiangong 2 2.8 20:14:17 10° WNW 20:16:21 32° W 20:16:21 32° W
Cosmos 1295 Rocket 4.4 20:14:28 10° S 20:20:49 89° ENE 20:27:09 10° N
GEOS 3 Rocket 3.5 20:26:38 39° NNE 20:28:38 81° WNW 20:33:44 10° SSW
Ariane H10+ 3.7 20:24:12 10° WSW 20:29:14 61° SSE 20:34:42 40° ESE
Ariane H10+ 3.7 20:24:11 10° WSW 20:29:14 61° SSE 20:34:43 40° ESE
USA 267 3.6 20:24:36 10° NNE 20:31:03 64° NW 20:37:30 10° SW
BLOCK DM-SL R/B 2.8 20:17:23 10° W 20:35:02 71° N 20:35:19 69° NNE
SL-8 Rocket 4.1 20:37:17 61° NNE 20:37:17 61° NNE 20:42:26 10° N
Centaur AC-69 3.7 20:26:42 10° WSW 20:37:59 74° WNW 20:37:59 74° WNW
SWIFT 4.0 20:37:07 10° W 20:39:50 32° WNW 20:39:50 32° WNW
Palapa 6 Rocket 4.3 20:39:35 10° W 20:43:36 40° WNW 20:43:36 40° WNW
Envisat 4.4 21:00:04 34° WNW 21:00:04 34° WNW 21:03:23 10° NNW
BLOCK DM-SL R/B 4.1 20:41:29 10° W 21:00:48 90° SW 21:00:51 89° E
